Weather History for White Plains, NY

Change the Weather History Date:

Wednesday, May 29, 2013

  Actual Average Record
Temperature  
Mean Temperature 68 °F -  
Max Temperature 82 °F 68 °F 92 °F (1987)
Min Temperature 55 °F 50 °F 41 °F (1978)
Cooling Degree Days 4    
Growing Degree Days 18 (Base 50)    
Moisture  
Dew Point 61 °F    
Average Humidity 82    
Maximum Humidity 97    
Minimum Humidity 54    
Precipitation  
Precipitation 0.01 in - - ()
Sea Level Pressure  
Sea Level Pressure 30.06 in    
Wind  
Wind Speed 2 mph (SE)    
Max Wind Speed 7 mph    
Max Gust Speed -    
Visibility 4 miles    
Events Fog , Rain    
Averages and records for this station are not official NWS values.
T = Trace of Precipitation, MM = Missing Value Source: NWS Daily Summary

Daily Weather History Graph

Daily Weather History Graph

Search for Another Location

Airport:

Trip Planner

Search our weather history database for the weather conditions in past years. The results will help you decide how hot, cold, wet, or windy it might be!

Date:

Astronomy

May. 29, 2013 Rise Set
Actual Time 5:26 AM EDT 8:18 PM EDT
Civil Twilight 4:53 AM EDT 8:51 PM EDT
Nautical Twilight 4:12 AM EDT 9:32 PM EDT
Astronomical Twilight 3:24 AM EDT 10:20 PM EDT
Moon No Moon Rise 10:23 AM EDT (5/29)
Length of Visible Light 15h 58m
Length of Day
14h 52m
Waning Gibbous, 73% of the Moon is Illuminated
May 29
Waning Gibbous
May 31
Last Quarter
Jun 8
New
Jun 16
First Quarter
Jun 23
Full

Hourly Weather History & Observations

Time (EDT) Temp. Heat Index Dew Point Humidity Pressure Visibility Wind Dir Wind Speed Gust Speed Precip Events Conditions
12:56 AM 57.0 °F - 55.9 °F 96% 30.12 in 0.2 mi East 3.5 mph - N/A Fog Fog
1:56 AM 57.0 °F - 55.9 °F 96% 30.11 in 0.2 mi Calm Calm - N/A Fog Fog
2:56 AM 57.0 °F - 55.9 °F 96% 30.09 in 0.2 mi East 3.5 mph - N/A Fog Fog
3:56 AM 57.0 °F - 55.0 °F 93% 30.08 in 0.2 mi Calm Calm - N/A Fog Fog
4:56 AM 57.0 °F - 55.9 °F 96% 30.08 in 0.2 mi ESE 3.5 mph - N/A Fog Fog
5:56 AM 55.9 °F - 55.0 °F 97% 30.08 in 0.0 mi ESE 3.5 mph - N/A Fog Fog
6:56 AM 57.0 °F - 55.0 °F 93% 30.09 in 0.0 mi Calm Calm - N/A Fog Fog
7:56 AM 57.0 °F - 55.9 °F 96% 30.10 in 0.2 mi Calm Calm - 0.00 in Fog , Rain Light Rain
8:56 AM 57.9 °F - 57.0 °F 97% 30.10 in 1.2 mi Calm Calm - 0.00 in   Mist
9:56 AM 61.0 °F - 57.9 °F 90% 30.10 in 1.2 mi Calm Calm - N/A   Mist
10:56 AM 64.0 °F - 61.0 °F 90% 30.09 in 1.5 mi Calm Calm - N/A   Mist
11:56 AM 68.0 °F - 62.1 °F 81% 30.08 in 4.0 mi SW 5.8 mph - N/A   Haze
12:12 PM 69.8 °F - 62.6 °F 78% 30.09 in 5.0 mi Calm Calm - N/A   Haze
12:20 PM 69.8 °F - 62.6 °F 78% 30.08 in 5.0 mi Calm Calm - N/A   Haze
12:56 PM 72.0 °F - 64.0 °F 76% 30.07 in 5.0 mi South 4.6 mph - N/A   Haze
1:56 PM 75.9 °F - 66.0 °F 71% 30.06 in 6.0 mi Calm Calm - N/A   Haze
2:56 PM 78.1 °F - 64.0 °F 62% 30.04 in 6.0 mi Variable 5.8 mph - 0.01 in   Haze
3:56 PM 81.0 °F 82.5 °F 64.0 °F 56% 30.03 in 8.0 mi Variable 6.9 mph - N/A   Clear
4:56 PM 82.0 °F 83.4 °F 64.0 °F 54% 30.01 in 8.0 mi Calm Calm - N/A   Clear
5:56 PM 79.0 °F - 66.0 °F 64% 30.01 in 8.0 mi SSE 4.6 mph - N/A   Partly Cloudy
6:56 PM 78.1 °F - 66.0 °F 66% 30.00 in 10.0 mi Calm Calm - N/A   Partly Cloudy
7:56 PM 75.0 °F - 64.0 °F 69% 30.00 in 10.0 mi South 4.6 mph - N/A   Partly Cloudy
8:56 PM 71.1 °F - 64.0 °F 78% 30.01 in 10.0 mi Calm Calm - N/A   Clear
9:56 PM 69.1 °F - 63.0 °F 81% 30.03 in 10.0 mi Calm Calm - N/A   Clear
10:56 PM 66.9 °F - 63.0 °F 87% 30.05 in 9.0 mi Calm Calm - N/A   Clear
11:56 PM 66.0 °F - 63.0 °F 90% 30.06 in 8.0 mi Calm Calm - N/A   Clear